N514DV KORL-KMTH

Flight info

Callsign N514DV
Flight time 0h 51m
Altitude 33000
Route NYTES2 MATLK Q87 GOPEY
Aircraft LJ35/M-SBDFGRWY/L

Departure

Time 2026-05-05 02:29
Airport Orlando Executive Airport (KORL)

Arrival

Time 2026-05-05 03:20
Airport Florida Keys Marathon International Airport (KMTH)
Time Latitude Longitude Altitude Speed Heading
2026-05-05 01:51 28.54834 -81.33783 115 ft 0 kts 291°
2026-05-05 02:25 28.54836 -81.33789 116 ft 3 kts 282°
2026-05-05 02:25 28.54816 -81.33817 115 ft 7 kts 182°
2026-05-05 02:25 28.54753 -81.33774 114 ft 14 kts 147°
2026-05-05 02:26 28.54711 -81.33745 112 ft 0 kts 150°
2026-05-05 02:26 28.54709 -81.33744 113 ft 1 kts 154°
2026-05-05 02:26 28.54690 -81.33734 113 ft 6 kts 144°
2026-05-05 02:26 28.54642 -81.33671 112 ft 13 kts 131°
2026-05-05 02:27 28.54582 -81.33599 111 ft 6 kts 153°
2026-05-05 02:27 28.54545 -81.33632 110 ft 11 kts 247°
2026-05-05 02:27 28.54507 -81.33736 108 ft 16 kts 246°
2026-05-05 02:27 28.54470 -81.33821 109 ft 13 kts 235°
2026-05-05 02:28 28.54394 -81.33894 108 ft 14 kts 218°
2026-05-05 02:28 28.54359 -81.33926 107 ft 6 kts 219°
2026-05-05 02:28 28.54324 -81.33942 106 ft 8 kts 166°
2026-05-05 02:28 28.54306 -81.33872 105 ft 19 kts 70°
2026-05-05 02:29 28.54471 -81.33434 112 ft 106 kts 66°
2026-05-05 02:29 28.54872 -81.32400 405 ft 164 kts 67°
2026-05-05 02:29 28.55327 -81.31167 1488 ft 168 kts 70°
2026-05-05 02:29 28.55768 -81.29870 1510 ft 182 kts 71°
2026-05-05 02:30 28.56298 -81.28524 1489 ft 193 kts 60°
2026-05-05 02:30 28.57356 -81.27524 1481 ft 205 kts 34°
2026-05-05 02:30 28.58555 -81.26623 1473 ft 209 kts 42°
2026-05-05 02:30 28.59561 -81.25431 1490 ft 210 kts 55°
2026-05-05 02:31 28.60433 -81.24082 1491 ft 214 kts 56°
2026-05-05 02:31 28.61341 -81.22694 1491 ft 217 kts 56°
2026-05-05 02:31 28.62156 -81.21243 1494 ft 218 kts 62°
2026-05-05 02:31 28.62911 -81.19736 1500 ft 220 kts 62°
2026-05-05 02:32 28.63668 -81.18204 1502 ft 223 kts 63°
2026-05-05 02:32 28.64419 -81.16656 1497 ft 225 kts 68°
2026-05-05 02:32 28.64672 -81.14892 1492 ft 225 kts 89°
2026-05-05 02:32 28.64636 -81.13090 1497 ft 225 kts 92°
2026-05-05 02:33 28.64570 -81.11336 1495 ft 208 kts 92°
2026-05-05 02:33 28.64512 -81.09755 1487 ft 195 kts 92°
2026-05-05 02:33 28.64460 -81.08237 1487 ft 190 kts 92°
2026-05-05 02:33 28.64402 -81.06740 1484 ft 186 kts 92°
2026-05-05 02:34 28.64337 -81.05289 1480 ft 183 kts 95°
2026-05-05 02:34 28.64051 -81.04352 1457 ft 185 kts 123°
2026-05-05 02:34 28.62919 -81.03580 1610 ft 195 kts 167°
2026-05-05 02:34 28.61561 -81.03522 1842 ft 198 kts 175°
2026-05-05 02:35 28.60190 -81.03541 2098 ft 197 kts 176°
2026-05-05 02:35 28.58784 -81.03565 2259 ft 207 kts 176°
2026-05-05 02:35 28.57346 -81.03586 2614 ft 207 kts 176°
2026-05-05 02:35 28.55901 -81.03598 2928 ft 208 kts 176°
2026-05-05 02:36 28.54448 -81.03591 3247 ft 209 kts 176°
2026-05-05 02:36 28.52993 -81.03556 3517 ft 210 kts 175°
2026-05-05 02:36 28.51546 -81.03353 3787 ft 210 kts 168°
2026-05-05 02:36 28.50096 -81.03104 4044 ft 211 kts 172°
2026-05-05 02:37 28.48626 -81.02925 4291 ft 213 kts 173°
2026-05-05 02:37 28.47142 -81.02758 4534 ft 215 kts 174°
2026-05-05 02:37 28.45643 -81.02581 4787 ft 217 kts 174°
2026-05-05 02:37 28.44144 -81.02401 4979 ft 217 kts 175°
2026-05-05 02:38 28.42631 -81.02221 4985 ft 221 kts 175°
2026-05-05 02:38 28.41094 -81.02038 4990 ft 223 kts 175°
2026-05-05 02:38 28.39539 -81.01854 4995 ft 225 kts 175°
2026-05-05 02:38 28.37982 -81.01668 4995 ft 226 kts 175°
2026-05-05 02:39 28.36417 -81.01482 4999 ft 226 kts 175°
2026-05-05 02:39 28.34860 -81.01297 4996 ft 224 kts 174°
2026-05-05 02:39 28.33313 -81.01112 4999 ft 222 kts 175°
2026-05-05 02:39 28.31783 -81.00930 4994 ft 221 kts 174°
2026-05-05 02:40 28.30257 -81.00748 4993 ft 220 kts 174°
2026-05-05 02:40 28.28739 -81.00568 4993 ft 219 kts 174°
2026-05-05 02:40 28.27225 -81.00387 4990 ft 218 kts 175°
2026-05-05 02:40 28.25715 -81.00209 4987 ft 218 kts 174°
2026-05-05 02:41 28.24203 -81.00031 4989 ft 223 kts 175°
2026-05-05 02:41 28.22507 -80.99829 4996 ft 273 kts 174°
2026-05-05 02:41 28.20600 -80.99594 6336 ft 262 kts 175°
2026-05-05 02:41 28.18746 -80.99371 7557 ft 275 kts 176°
2026-05-05 02:42 28.16820 -80.99148 8703 ft 281 kts 176°
2026-05-05 02:42 28.14854 -80.98916 9867 ft 287 kts 176°
2026-05-05 02:42 28.12844 -80.98676 10846 ft 297 kts 175°
2026-05-05 02:42 28.10687 -80.98424 11505 ft 323 kts 176°
2026-05-05 02:43 28.08467 -80.98161 12901 ft 323 kts 175°
2026-05-05 02:43 28.06207 -80.97891 14040 ft 332 kts 176°
2026-05-05 02:43 28.03882 -80.97616 15075 ft 338 kts 176°
2026-05-05 02:43 28.01516 -80.97338 16125 ft 345 kts 178°
2026-05-05 02:44 27.99108 -80.97054 17165 ft 351 kts 178°
2026-05-05 02:44 27.96658 -80.96764 18199 ft 358 kts 179°
2026-05-05 02:44 27.94162 -80.96470 19101 ft 364 kts 179°
2026-05-05 02:44 27.91620 -80.96169 19995 ft 370 kts 179°
2026-05-05 02:45 27.89041 -80.95865 20886 ft 376 kts 180°
2026-05-05 02:45 27.86422 -80.95556 21760 ft 382 kts 180°
2026-05-05 02:45 27.83756 -80.95243 22638 ft 388 kts 180°
2026-05-05 02:45 27.81049 -80.94807 23508 ft 397 kts 176°
2026-05-05 02:46 27.78304 -80.94270 24240 ft 403 kts 176°
2026-05-05 02:46 27.75513 -80.93756 24920 ft 409 kts 177°
2026-05-05 02:46 27.72680 -80.93233 25583 ft 417 kts 177°
2026-05-05 02:46 27.69798 -80.92682 26258 ft 423 kts 177°
2026-05-05 02:47 27.66877 -80.92123 26915 ft 429 kts 177°
2026-05-05 02:47 27.63914 -80.91567 27562 ft 435 kts 177°
2026-05-05 02:47 27.60866 -80.90995 28152 ft 441 kts 177°
2026-05-05 02:47 27.57828 -80.90414 28691 ft 444 kts 177°
2026-05-05 02:48 27.54767 -80.89832 29200 ft 448 kts 177°
2026-05-05 02:48 27.51674 -80.89255 29670 ft 453 kts 178°
2026-05-05 02:48 27.48553 -80.88671 30132 ft 457 kts 177°
2026-05-05 02:48 27.45399 -80.88075 30519 ft 461 kts 177°
2026-05-05 02:49 27.42228 -80.87476 30902 ft 464 kts 178°
2026-05-05 02:49 27.39034 -80.86876 31368 ft 465 kts 178°
2026-05-05 02:49 27.35879 -80.86283 31912 ft 465 kts 178°
2026-05-05 02:49 27.32644 -80.85741 32498 ft 461 kts 183°
2026-05-05 02:50 27.29496 -80.85860 33035 ft 451 kts 194°
2026-05-05 02:50 27.26327 -80.86226 33056 ft 465 kts 194°
2026-05-05 02:50 27.23065 -80.86609 33064 ft 477 kts 194°
2026-05-05 02:51 27.16377 -80.87312 33051 ft 487 kts 193°
2026-05-05 02:51 27.09650 -80.88053 33068 ft 486 kts 194°
2026-05-05 02:52 27.02905 -80.88788 33072 ft 487 kts 193°
2026-05-05 02:52 26.96110 -80.89524 33068 ft 487 kts 193°
2026-05-05 02:53 26.89356 -80.90261 33063 ft 488 kts 193°
2026-05-05 02:53 26.82608 -80.90990 33046 ft 488 kts 193°
2026-05-05 02:54 26.75833 -80.91727 33045 ft 490 kts 194°
2026-05-05 02:54 26.69038 -80.92461 33043 ft 491 kts 194°
2026-05-05 02:55 26.62227 -80.93198 33048 ft 492 kts 194°
2026-05-05 02:55 26.55417 -80.93932 33041 ft 492 kts 194°
2026-05-05 02:56 26.48598 -80.94669 33042 ft 493 kts 194°
2026-05-05 02:56 26.41771 -80.95403 33040 ft 493 kts 194°
2026-05-05 02:57 26.34935 -80.96139 33038 ft 493 kts 194°
2026-05-05 02:57 26.28120 -80.96867 32785 ft 489 kts 194°
2026-05-05 02:57 26.24726 -80.97228 32129 ft 489 kts 193°
2026-05-05 02:58 26.21357 -80.97596 31828 ft 484 kts 193°
2026-05-05 02:58 26.18015 -80.97955 31477 ft 481 kts 193°
2026-05-05 02:58 26.14698 -80.98305 31087 ft 477 kts 193°
2026-05-05 02:58 26.11408 -80.98654 30546 ft 473 kts 193°
2026-05-05 02:59 26.08152 -80.99006 30051 ft 468 kts 193°
2026-05-05 02:59 26.04930 -80.99350 29443 ft 462 kts 193°
2026-05-05 02:59 26.01745 -80.99688 28818 ft 457 kts 193°
2026-05-05 02:59 25.98597 -81.00026 28207 ft 452 kts 193°
2026-05-05 03:00 25.95486 -81.00362 27567 ft 447 kts 193°
2026-05-05 03:00 25.92410 -81.00689 26999 ft 442 kts 193°
2026-05-05 03:00 25.89367 -81.01013 26452 ft 437 kts 193°
2026-05-05 03:00 25.86358 -81.01334 25903 ft 432 kts 193°
2026-05-05 03:01 25.83380 -81.01653 25384 ft 428 kts 193°
2026-05-05 03:01 25.80432 -81.01966 24888 ft 423 kts 193°
2026-05-05 03:01 25.77514 -81.02277 24404 ft 419 kts 193°
2026-05-05 03:01 25.74631 -81.02584 23906 ft 415 kts 193°
2026-05-05 03:02 25.71773 -81.02888 23401 ft 411 kts 193°
2026-05-05 03:02 25.68944 -81.03190 22857 ft 406 kts 193°
2026-05-05 03:02 25.66173 -81.03484 22323 ft 402 kts 193°
2026-05-05 03:02 25.63405 -81.03777 21839 ft 398 kts 193°
2026-05-05 03:03 25.60655 -81.04070 21368 ft 395 kts 193°
2026-05-05 03:03 25.57931 -81.04360 20909 ft 391 kts 192°
2026-05-05 03:03 25.55236 -81.04645 20467 ft 388 kts 192°
2026-05-05 03:03 25.52565 -81.04928 20040 ft 384 kts 192°
2026-05-05 03:04 25.49913 -81.05209 19619 ft 381 kts 192°
2026-05-05 03:04 25.47292 -81.05487 19216 ft 378 kts 192°
2026-05-05 03:04 25.44679 -81.05765 18822 ft 375 kts 192°
2026-05-05 03:04 25.42094 -81.06038 18441 ft 372 kts 192°
2026-05-05 03:05 25.39524 -81.06310 18026 ft 369 kts 192°
2026-05-05 03:05 25.36978 -81.06581 17651 ft 367 kts 192°
2026-05-05 03:05 25.34444 -81.06848 17298 ft 364 kts 192°
2026-05-05 03:05 25.31927 -81.07116 17051 ft 363 kts 192°
2026-05-05 03:06 25.29423 -81.07380 16973 ft 361 kts 192°
2026-05-05 03:06 25.26922 -81.07643 16813 ft 360 kts 192°
2026-05-05 03:06 25.24427 -81.07906 16671 ft 360 kts 192°
2026-05-05 03:06 25.21938 -81.08170 16526 ft 359 kts 192°
2026-05-05 03:07 25.19440 -81.08324 16375 ft 365 kts 182°
2026-05-05 03:07 25.16933 -81.07701 16250 ft 376 kts 165°
2026-05-05 03:07 25.14646 -81.06252 16054 ft 386 kts 146°
2026-05-05 03:07 25.12821 -81.04058 15732 ft 392 kts 130°
2026-05-05 03:08 25.11258 -81.01604 15381 ft 390 kts 128°
2026-05-05 03:08 25.09713 -80.99163 14960 ft 387 kts 129°
2026-05-05 03:08 25.08156 -80.96754 14560 ft 384 kts 129°
2026-05-05 03:08 25.06607 -80.94376 14150 ft 380 kts 129°
2026-05-05 03:09 25.05080 -80.92012 13667 ft 377 kts 129°
2026-05-05 03:09 25.03575 -80.89674 13172 ft 371 kts 129°
2026-05-05 03:09 25.02099 -80.87388 12639 ft 356 kts 129°
2026-05-05 03:09 25.00705 -80.85234 12121 ft 337 kts 129°
2026-05-05 03:10 24.99376 -80.83181 11600 ft 322 kts 129°
2026-05-05 03:10 24.98093 -80.81200 10973 ft 318 kts 129°
2026-05-05 03:10 24.96819 -80.79236 10498 ft 312 kts 129°
2026-05-05 03:10 24.95562 -80.77299 10049 ft 309 kts 129°
2026-05-05 03:11 24.94321 -80.75382 9675 ft 306 kts 129°
2026-05-05 03:11 24.93086 -80.73478 9278 ft 304 kts 128°
2026-05-05 03:11 24.91862 -80.71591 8893 ft 301 kts 128°
2026-05-05 03:11 24.90554 -80.69813 8510 ft 296 kts 141°
2026-05-05 03:12 24.89455 -80.68946 8264 ft 290 kts 154°
2026-05-05 03:12 24.87594 -80.68197 7895 ft 283 kts 173°
2026-05-05 03:12 24.85658 -80.68146 7541 ft 276 kts 191°
2026-05-05 03:12 24.83846 -80.68754 7187 ft 271 kts 208°
2026-05-05 03:13 24.82326 -80.69896 6577 ft 263 kts 225°
2026-05-05 03:13 24.81211 -80.71479 5808 ft 262 kts 241°
2026-05-05 03:13 24.80497 -80.73309 5145 ft 258 kts 250°
2026-05-05 03:13 24.79920 -80.75131 4846 ft 242 kts 251°
2026-05-05 03:14 24.79430 -80.76801 4792 ft 219 kts 255°
2026-05-05 03:14 24.79214 -80.78383 4723 ft 201 kts 266°
2026-05-05 03:14 24.79229 -80.79848 4516 ft 185 kts 274°
2026-05-05 03:14 24.79398 -80.81215 4219 ft 177 kts 278°
2026-05-05 03:15 24.79583 -80.82562 3856 ft 178 kts 276°
2026-05-05 03:15 24.79699 -80.83909 3529 ft 176 kts 270°
2026-05-05 03:15 24.79617 -80.85187 3311 ft 159 kts 263°
2026-05-05 03:15 24.79519 -80.86408 3120 ft 161 kts 265°
2026-05-05 03:16 24.79386 -80.87598 3032 ft 148 kts 259°
2026-05-05 03:16 24.79096 -80.88657 2788 ft 146 kts 247°
2026-05-05 03:16 24.78677 -80.89679 2578 ft 146 kts 244°
2026-05-05 03:16 24.78243 -80.90679 2415 ft 145 kts 243°
2026-05-05 03:17 24.77795 -80.91678 2282 ft 146 kts 242°
2026-05-05 03:17 24.77362 -80.92702 2163 ft 148 kts 244°
2026-05-05 03:17 24.76947 -80.93766 2002 ft 154 kts 245°
2026-05-05 03:17 24.76540 -80.94870 1829 ft 156 kts 245°
2026-05-05 03:18 24.76118 -80.95951 1661 ft 153 kts 245°
2026-05-05 03:18 24.75719 -80.97024 1465 ft 153 kts 246°
2026-05-05 03:18 24.75309 -80.98123 1165 ft 156 kts 245°
2026-05-05 03:18 24.74871 -80.99214 972 ft 151 kts 246°
2026-05-05 03:19 24.74083 -81.01315 608 ft 146 kts 246°
2026-05-05 03:19 24.73712 -81.02305 490 ft 136 kts 245°
2026-05-05 03:19 24.73341 -81.03252 301 ft 135 kts 245°
2026-05-05 03:20 24.72972 -81.04212 84 ft 131 kts 246°
2026-05-05 03:20 24.72651 -81.05063 8 ft 99 kts 247°
2026-05-05 03:20 24.72456 -81.05563 14 ft 48 kts 247°
2026-05-05 03:20 24.72369 -81.05787 12 ft 16 kts 239°
2026-05-05 03:21 24.72322 -81.05751 11 ft 15 kts 66°
2026-05-05 03:21 24.72361 -81.05654 14 ft 15 kts 67°
2026-05-05 03:21 24.72395 -81.05563 14 ft 7 kts 68°
2026-05-05 03:21 24.72413 -81.05512 14 ft 3 kts 85°
2026-05-05 03:22 24.72386 -81.05493 13 ft 5 kts 147°
2026-05-05 03:22 24.72390 -81.05438 12 ft 11 kts 70°
2026-05-05 03:22 24.72437 -81.05351 12 ft 16 kts 58°
2026-05-05 03:22 24.72473 -81.05276 12 ft 1 kts 68°
2026-05-05 03:23 24.72473 -81.05275 12 ft 0 kts 68°